Location: Newark
(25.4800°N, 85.7200°E)
Time: 10:55:48
(UTC+00:00)

Explorer 11/Cluster Stage 4 - Pass Details

Date: 20 August 2019
Orbit: 467 x 1260 km, 28.8° (Epoch: 19 September)

Event Time Altitude Azimuth Distance (km) Brightness Sun altitude
Rises 04:57:41 0° 240° (WSW) 4,143 10.2 66.6°
Reaches altitude 10° 05:00:35 10° 237° (WSW) 3,212 9.7 67.1°
Maximum altitude 05:08:44 64° 158° (SSE) 1,361 9.9 68.7°
Drops below altitude 10° 05:16:28 10° 79° (E) 3,060 9.9 70.1°
Sets 05:19:11 0° 76° (ENE) 3,938 10.3 70.6°
